Location: Piolenc
(44.1794°N, 4.7641°E)
Time: 18:09:46
(UTC+00:00)

ATLAS CENTAUR R/B - Visible Passes

Search period start: 14 May 2021 00:00
Search period end: 24 May 2021 00:00
Orbit: 472 x 672 km, 64.7° (Epoch: 08 May)

Date Brightness Start Highest point End Pass type
(mag) Time Alt. Az. Time Alt. Az. Time Alt. Az.
14 May 2.8 23:43:28 31° NNW 23:43:28 31° NNW 23:46:25 10° NNE visible
15 May 3.4 22:08:51 16° ENE 22:08:51 16° ENE 22:09:47 10° NE visible
15 May 3.2 23:44:57 22° NW 23:45:18 23° NW 23:48:23 10° N visible
16 May 2.6 22:10:15 27° NE 22:10:15 27° NE 22:12:10 10° NE visible
16 May 3.7 23:46:20 14° WNW 23:47:41 17° NW 23:50:13 10° N visible
17 May 1.7 22:11:29 51° NNE 22:11:29 51° NNE 22:14:25 10° NE visible
17 May 4.1 23:48:26 10° WNW 23:50:07 13° NW 23:51:51 10° N visible
18 May 1.6 22:12:29 52° WNW 22:12:50 55° NW 22:16:34 10° NNE visible
19 May 2.6 20:37:07 19° E 20:37:07 19° E 20:39:14 10° ENE visible
19 May 2.5 22:13:09 21° WSW 22:15:06 36° NW 22:18:39 10° NNE visible
20 May 1.8 20:37:11 23° SSE 20:38:33 30° ESE 20:41:51 10° NE visible
20 May 3.3 22:14:17 10° WSW 22:17:24 25° NW 22:20:38 10° NNE visible
21 May 1.2 20:37:07 10° SSW 20:40:38 48° ESE 20:44:16 10° NE visible
21 May 3.9 22:17:06 10° W 22:19:46 18° NW 22:22:31 10° N visible
22 May 4.8 03:20:55 10° N 03:22:35 12° NNE 03:24:17 10° ENE visible
22 May 0.9 20:39:08 10° SSW 20:42:45 80° SE 20:46:34 10° NE visible
22 May 4.3 22:20:10 10° WNW 22:22:11 14° NW 22:24:14 10° N visible
23 May 4.6 03:22:27 10° N 03:25:02 16° NE 03:27:42 10° ENE visible
23 May 1.5 20:41:19 10° SW 20:44:57 64° NW 20:48:44 10° NNE visible
23 May 4.7 22:23:52 10° NW 22:24:38 10° NNW 22:25:26 10° NNW visible
